M1VPN Weather Reports


time (UTC)temp
C
wind
direction
speed
KPH
gust
KPH
rain 1hr
cm
rain 24hr
cm
rain mn
cm
humidity
%
barometer
mb
20260507154504 15 165 4.8 19.3 0.00 0.00 0.00 54 1015.9
20260507150005 15 218 4.8 19.3 0.00 0.00 0.00 51 1015.9
20260507141503 15 145 3.2 19.3 0.00 0.00 0.00 58 1016.4
20260507133004 15 0 0.0 0.0 0.00 0.00 0.00 54 1016.4
20260507124504 14 0 0.0 0.0 0.00 0.00 0.00 57 1016.5
20260507123004 15 0 0.0 0.0 0.00 0.00 0.00 57 1016.6
20260507121504 15 0 0.0 0.0 0.00 0.00 0.00 58 1016.7
20260507113004 15 0 0.0 0.0 0.00 0.00 0.00 60 1017.0
20260507111504 15 0 0.0 0.0 0.00 0.00 0.00 62 1017.1
20260507103004 15 0 0.0 0.0 0.00 0.00 0.00 69 1016.8
20260507094505 15 0 0.0 0.0 0.00 0.00 0.00 71 1016.8
20260507093005 14 0 0.0 0.0 0.00 0.00 0.00 73 1016.7
20260507091505 13 0 0.0 0.0 0.00 0.00 0.00 78 1016.8
20260507080005 11 0 0.0 0.0 0.00 0.00 0.00 85 1016.8
20260507073005 10 0 0.0 0.0 0.00 0.00 0.00 85 1016.6
20260507070009 9 0 0.0 0.0 0.00 0.00 0.00 91 1016.4
20260507064505 8 0 0.0 0.0 0.00 0.00 0.00 92 1016.2
20260507060005 7 0 0.0 0.0 0.00 0.00 0.00 92 1016.2
20260507053005 6 0 0.0 0.0 0.00 0.00 0.00 92 1016.0
20260507051504 6 0 0.0 0.0 0.00 0.00 0.00 92 1016.1
20260507044504 6 0 0.0 0.0 0.00 0.00 0.00 91 1016.1
20260507043005 6 0 0.0 0.0 0.00 0.00 0.00 91 1016.0
20260507030005 6 0 0.0 0.0 0.00 0.00 0.00 89 1015.8
20260507023005 7 0 0.0 0.0 0.00 0.00 0.00 89 1015.5
20260507021504 7 0 0.0 0.0 0.00 0.00 0.00 89 1015.5
20260507001504 8 0 0.0 0.0 0.00 0.00 0.00 87 1015.9
20260506234504 8 0 0.0 0.0 0.00 0.00 0.00 86 1015.9
20260506233005 8 0 0.0 0.0 0.00 0.00 0.00 87 1015.9
20260506231505 8 0 0.0 0.0 0.00 0.00 0.00 84 1015.8
20260506230004 8 0 0.0 0.0 0.00 0.00 0.00 84 1015.9
20260506211505 10 0 0.0 0.0 0.00 0.00 0.00 83 1015.8
20260506210004 10 0 0.0 0.0 0.00 0.00 0.00 82 1015.5
20260506204504 10 0 0.0 0.0 0.00 0.00 0.00 81 1015.5
20260506200004 11 0 0.0 0.0 0.00 0.00 0.00 78 1015.1
20260506194504 11 0 0.0 0.0 0.00 0.00 0.00 77 1015.2
20260506193005 11 0 0.0 0.0 0.00 0.00 0.00 76 1015.1
20260506191504 12 0 0.0 0.0 0.00 0.00 0.00 74 1015.1
20260506190004 12 0 0.0 0.0 0.00 0.00 0.00 73 1014.9
20260506184504 12 0 0.0 0.0 0.00 0.00 0.00 72 1015.0
20260506181504 12 0 0.0 0.0 0.00 0.00 0.00 68 1014.8
20260506173004 13 0 0.0 0.0 0.00 0.00 0.00 61 1014.4
20260506171504 14 0 0.0 0.0 0.00 0.00 0.00 59 1014.4
20260506170004 14 0 0.0 0.0 0.00 0.00 0.00 57 1014.4
20260506160004 13 0 0.0 0.0 0.00 0.00 0.00 58 1014.3